Home   Weather   Miramichi   Past weeks

Flag for Canada Past Weather in Miramichi, New Brunswick, Canada — Yesterday and Last 2 Weeks

Now
27 °F

Light snow. Overcast.


Feels Like: 17 °F
Forecast: N/A
Wind: 10 mph from Northeast

Location: Bathurst Airport

Current Time: Jan 24, 2017 at 7:31:51 pm

Latest Report: Jan 24, 2017 at 6:00 pm


Visibility: 15 mi

Pressure: 30.05 "Hg

Humidity: 93%

Dew Point: 25 °F

Location of MiramichiLocation

Past Weather in Miramichi — Graph

°F

Miramichi Temperature Yesterday

Maximum temperature yesterday: 30 °F (at 3:00 pm)
Minimum temperature yesterday: 3 °F (at 8:00 am)
Average temperature yesterday: 18 °F

High & Low Weather Summary for the Past Weeks

 TemperatureHumidityPressure
High45 °F (Jan 11, 2:00 pm)100% (Jan 11, 10:00 pm)30.70 "Hg (Jan 11, 10:00 pm)
Low-17 °F (Jan 9, 10:00 pm)40% (Jan 15, 3:00 pm)29.62 "Hg (Jan 13, 1:00 am)
Average17 °F77%30.11 "Hg
* Reported Jan 9 6:00 pm — Jan 24 6:00 pm, Miramichi, Weather by CustomWeather, © 2017

Note: Actual official high and low records may vary slightly from our data, if they occured in-between our weather recording intervals... More about our weather records

Advertising

Miramichi Weather History for the Previous 24 Hours

Scroll right to see more
 ConditionsComfort  
Time TempWeatherWind HumidityBarometerVisibility
6:00 pm
Tue, Jan 24
27 °FLight snow. Overcast.10 mph93%30.05 "Hg15 mi
5:00 pm27 °FMostly cloudy.6 mph86%30.06 "Hg15 mi
4:00 pm27 °FMostly cloudy.6 mph86%30.07 "Hg15 mi
3:00 pm27 °FMostly cloudy.7 mph86%30.09 "Hg15 mi
2:00 pm25 °FMostly cloudy.6 mph93%30.11 "Hg15 mi
1:00 pm23 °FOvercast.6 mph86%30.14 "Hg15 mi
12:00 pm21 °FOvercast.5 mph86%30.18 "Hg15 mi
11:00 am21 °FOvercast.3 mph80%30.21 "Hg15 mi
10:00 am16 °FOvercast.2 mph86%30.22 "Hg15 mi
9:00 am10 °FOvercast.No wind85%30.22 "Hg15 mi
8:00 am7 °FMostly cloudy.2 mph85%30.22 "Hg15 mi
7:00 am5 °FOvercast.2 mph85%30.22 "Hg15 mi
6:00 am5 °FOvercast.2 mph85%30.22 "Hg15 mi
5:00 am7 °FPassing clouds.3 mph78%30.23 "Hg15 mi
4:00 am5 °FOvercast.3 mph85%30.23 "Hg15 mi
3:00 am5 °FClear.5 mph85%30.24 "Hg15 mi
2:00 am7 °FOvercast.2 mph85%30.24 "Hg15 mi
1:00 am7 °FOvercast.3 mph85%30.24 "Hg15 mi
12:00 am5 °FClear.3 mph92%30.25 "Hg15 mi
11:00 pm
Mon, Jan 23
7 °FClear.2 mph92%30.24 "Hg15 mi
10:00 pm9 °FPassing clouds.2 mph85%30.24 "Hg15 mi
9:00 pm10 °FPassing clouds.2 mph85%30.24 "Hg15 mi
8:00 pm14 °FClear.No wind79%30.24 "Hg15 mi
7:00 pm18 °FPassing clouds.No wind73%30.24 "Hg15 mi
Weather by CustomWeather, © 2017

See weather overviewHow to use our weather pages